AMX255 MMOX-MMMX

Flight info

Callsign AMX255
Flight time 0h 38m
Altitude 32000
Route MAXIL UT158 KODEK UT157 LARLO LARLO4A
Aircraft B738/M-SDE2E3FGHIRWXY/LB1

Departure

Time 2026-04-22 14:10
Airport Xoxocotlán International Airport (MMOX)

Arrival

Time 2026-04-22 14:48
Airport Mexico City Benito Juárez International Airport (MMMX)
Time Latitude Longitude Altitude Speed Heading
2026-04-22 13:56 17.00098 -96.72268 4993 ft 0 kts 105°
2026-04-22 14:04 17.00103 -96.72288 4993 ft 4 kts 96°
2026-04-22 14:04 17.00102 -96.72315 4993 ft 4 kts 70°
2026-04-22 14:05 17.00089 -96.72335 4993 ft 3 kts 18°
2026-04-22 14:05 17.00086 -96.72336 4993 ft 1 kts 15°
2026-04-22 14:06 17.00092 -96.72334 4993 ft 4 kts 15°
2026-04-22 14:07 17.00143 -96.72319 4993 ft 10 kts 15°
2026-04-22 14:07 17.00218 -96.72297 4993 ft 9 kts 15°
2026-04-22 14:07 17.00265 -96.72291 4993 ft 7 kts 339°
2026-04-22 14:07 17.00299 -96.72367 4989 ft 15 kts 285°
2026-04-22 14:08 17.00358 -96.72450 4987 ft 16 kts 358°
2026-04-22 14:08 17.00473 -96.72422 4991 ft 21 kts 15°
2026-04-22 14:08 17.00623 -96.72378 4992 ft 23 kts 16°
2026-04-22 14:08 17.00773 -96.72339 4993 ft 22 kts
2026-04-22 14:09 17.00908 -96.72348 4993 ft 18 kts 39°
2026-04-22 14:09 17.00832 -96.72315 4993 ft 25 kts 197°
2026-04-22 14:09 17.00441 -96.72431 4990 ft 94 kts 195°
2026-04-22 14:09 16.99583 -96.72676 4991 ft 155 kts 194°
2026-04-22 14:10 16.98430 -96.72993 5293 ft 179 kts 194°
2026-04-22 14:10 16.97227 -96.73308 6122 ft 183 kts 192°
2026-04-22 14:10 16.95943 -96.73600 6788 ft 194 kts 193°
2026-04-22 14:10 16.94714 -96.74344 6984 ft 222 kts 232°
2026-04-22 14:11 16.94224 -96.75927 7154 ft 247 kts 272°
2026-04-22 14:11 16.94752 -96.77684 7421 ft 266 kts 303°
2026-04-22 14:11 16.95607 -96.78682 7549 ft 281 kts 324°
2026-04-22 14:11 16.97910 -96.80008 8465 ft 289 kts 334°
2026-04-22 14:12 16.99140 -96.80637 8993 ft 292 kts 334°
2026-04-22 14:12 17.00968 -96.81573 9802 ft 294 kts 334°
2026-04-22 14:12 17.02825 -96.82495 10556 ft 298 kts 337°
2026-04-22 14:12 17.04764 -96.83373 11193 ft 305 kts 337°
2026-04-22 14:13 17.06669 -96.84281 12234 ft 299 kts 335°
2026-04-22 14:13 17.08535 -96.85232 13147 ft 299 kts 334°
2026-04-22 14:13 17.10376 -96.86218 13872 ft 305 kts 333°
2026-04-22 14:13 17.12259 -96.87262 14642 ft 308 kts 332°
2026-04-22 14:14 17.14158 -96.88338 15435 ft 312 kts 332°
2026-04-22 14:14 17.16072 -96.89437 16215 ft 316 kts 332°
2026-04-22 14:14 17.18008 -96.90557 16934 ft 321 kts 332°
2026-04-22 14:14 17.20027 -96.91728 17146 ft 344 kts 332°
2026-04-22 14:15 17.22176 -96.92979 17314 ft 364 kts 332°
2026-04-22 14:15 17.24433 -96.94294 17664 ft 377 kts 332°
2026-04-22 14:15 17.26739 -96.95638 18241 ft 381 kts 332°
2026-04-22 14:15 17.29062 -96.96993 18917 ft 384 kts 332°
2026-04-22 14:16 17.31399 -96.98371 19494 ft 388 kts 329°
2026-04-22 14:16 17.33659 -96.99957 20049 ft 393 kts 325°
2026-04-22 14:16 17.35895 -97.01627 20615 ft 397 kts 324°
2026-04-22 14:16 17.38148 -97.03330 21144 ft 401 kts 324°
2026-04-22 14:17 17.40419 -97.05044 21663 ft 405 kts 324°
2026-04-22 14:17 17.42723 -97.06773 22145 ft 409 kts 324°
2026-04-22 14:17 17.45049 -97.08511 22620 ft 413 kts 324°
2026-04-22 14:17 17.47396 -97.10260 23101 ft 416 kts 324°
2026-04-22 14:18 17.49768 -97.12026 23564 ft 420 kts 324°
2026-04-22 14:18 17.52156 -97.13804 24002 ft 423 kts 324°
2026-04-22 14:18 17.54565 -97.15598 24413 ft 426 kts 324°
2026-04-22 14:18 17.56989 -97.17403 24849 ft 429 kts 324°
2026-04-22 14:19 17.59423 -97.19224 25296 ft 431 kts 323°
2026-04-22 14:19 17.61699 -97.21217 25750 ft 432 kts 317°
2026-04-22 14:19 17.63879 -97.23389 26209 ft 434 kts 315°
2026-04-22 14:19 17.66039 -97.25616 26616 ft 436 kts 315°
2026-04-22 14:20 17.70379 -97.30106 27416 ft 440 kts 315°
2026-04-22 14:20 17.72579 -97.32357 27813 ft 442 kts 315°
2026-04-22 14:20 17.74792 -97.34609 28191 ft 445 kts 315°
2026-04-22 14:21 17.79253 -97.39124 29076 ft 444 kts 315°
2026-04-22 14:21 17.81471 -97.41363 29657 ft 440 kts 315°
2026-04-22 14:22 17.85860 -97.45797 30706 ft 437 kts 314°
2026-04-22 14:22 17.88048 -97.48011 31162 ft 436 kts 314°
2026-04-22 14:22 17.92398 -97.52411 32014 ft 434 kts 314°
2026-04-22 14:23 17.94573 -97.54615 32262 ft 435 kts 314°
2026-04-22 14:23 17.98938 -97.59042 32255 ft 434 kts 314°
2026-04-22 14:24 18.03256 -97.63418 32275 ft 431 kts 314°
2026-04-22 14:24 18.07572 -97.67798 32278 ft 431 kts 314°
2026-04-22 14:25 18.11889 -97.72184 32279 ft 432 kts 314°
2026-04-22 14:25 18.16210 -97.76576 32285 ft 432 kts 314°
2026-04-22 14:26 18.20529 -97.80969 32287 ft 432 kts 314°
2026-04-22 14:26 18.24847 -97.85362 32297 ft 432 kts 314°
2026-04-22 14:27 18.29167 -97.89756 32309 ft 432 kts 314°
2026-04-22 14:27 18.33486 -97.94150 32319 ft 432 kts 314°
2026-04-22 14:28 18.37805 -97.98548 32317 ft 432 kts 314°
2026-04-22 14:28 18.42119 -98.02948 32328 ft 431 kts 314°
2026-04-22 14:28 18.44244 -98.05116 32152 ft 432 kts 314°
2026-04-22 14:29 18.46422 -98.07338 31824 ft 426 kts 314°
2026-04-22 14:29 18.48509 -98.09467 31380 ft 422 kts 314°
2026-04-22 14:29 18.50603 -98.11605 30966 ft 418 kts 314°
2026-04-22 14:29 18.52684 -98.13730 30530 ft 415 kts 314°
2026-04-22 14:30 18.54743 -98.15835 30093 ft 411 kts 314°
2026-04-22 14:30 18.56789 -98.17928 29655 ft 408 kts 314°
2026-04-22 14:30 18.58814 -98.19999 29204 ft 404 kts 314°
2026-04-22 14:30 18.60822 -98.22055 28763 ft 401 kts 314°
2026-04-22 14:31 18.62818 -98.24098 28324 ft 398 kts 314°
2026-04-22 14:31 18.64795 -98.26122 27887 ft 395 kts 315°
2026-04-22 14:31 18.66759 -98.28134 27443 ft 392 kts 315°
2026-04-22 14:31 18.68708 -98.30130 27015 ft 389 kts 315°
2026-04-22 14:32 18.70593 -98.32158 26565 ft 386 kts 307°
2026-04-22 14:32 18.71918 -98.34599 26091 ft 383 kts 289°
2026-04-22 14:32 18.72576 -98.37321 25607 ft 383 kts 282°
2026-04-22 14:32 18.73074 -98.40083 25083 ft 384 kts 281°
2026-04-22 14:33 18.73546 -98.42850 24564 ft 384 kts 281°
2026-04-22 14:33 18.74019 -98.45618 24035 ft 383 kts 281°
2026-04-22 14:33 18.74501 -98.48385 23508 ft 383 kts 281°
2026-04-22 14:33 18.74990 -98.51140 22994 ft 382 kts 281°
2026-04-22 14:34 18.75484 -98.53891 22469 ft 381 kts 281°
2026-04-22 14:34 18.75981 -98.56634 21960 ft 380 kts 281°
2026-04-22 14:34 18.76480 -98.59374 21433 ft 379 kts 281°
2026-04-22 14:34 18.76975 -98.62099 20933 ft 378 kts 282°
2026-04-22 14:35 18.77468 -98.64815 20417 ft 376 kts 281°
2026-04-22 14:35 18.77960 -98.67521 19909 ft 375 kts 282°
2026-04-22 14:35 18.78450 -98.70219 19402 ft 374 kts 282°
2026-04-22 14:35 18.78937 -98.72909 18867 ft 373 kts 282°
2026-04-22 14:36 18.79463 -98.75595 18231 ft 374 kts 287°
2026-04-22 14:36 18.80492 -98.77925 17799 ft 370 kts 304°
2026-04-22 14:36 18.82075 -98.80009 17567 ft 360 kts 315°
2026-04-22 14:36 18.84018 -98.81609 17303 ft 351 kts 329°
2026-04-22 14:37 18.86113 -98.82847 17266 ft 337 kts 331°
2026-04-22 14:37 18.88146 -98.83998 17256 ft 327 kts 332°
2026-04-22 14:37 18.90164 -98.85137 17280 ft 333 kts 332°
2026-04-22 14:37 18.92207 -98.86299 17290 ft 341 kts 331°
2026-04-22 14:38 18.94303 -98.87504 17286 ft 343 kts 331°
2026-04-22 14:38 18.96395 -98.88713 17181 ft 343 kts 331°
2026-04-22 14:38 18.98481 -98.89923 16921 ft 341 kts 331°
2026-04-22 14:38 19.00553 -98.91129 16599 ft 339 kts 331°
2026-04-22 14:39 19.02615 -98.92330 16299 ft 337 kts 331°
2026-04-22 14:39 19.04640 -98.93511 15950 ft 327 kts 331°
2026-04-22 14:39 19.06599 -98.94653 15639 ft 316 kts 331°
2026-04-22 14:40 19.09720 -98.96475 15151 ft 300 kts 331°
2026-04-22 14:40 19.12108 -98.97871 14764 ft 287 kts 331°
2026-04-22 14:40 19.13826 -98.98874 14503 ft 278 kts 331°
2026-04-22 14:40 19.15493 -98.99848 14259 ft 270 kts 331°
2026-04-22 14:41 19.17114 -99.00796 14022 ft 263 kts 331°
2026-04-22 14:41 19.18609 -99.01868 13711 ft 259 kts 317°
2026-04-22 14:41 19.19888 -99.03203 13482 ft 256 kts 316°
2026-04-22 14:41 19.21153 -99.04500 13196 ft 250 kts 317°
2026-04-22 14:42 19.22396 -99.05754 12916 ft 244 kts 317°
2026-04-22 14:42 19.23618 -99.06975 12605 ft 239 kts 317°
2026-04-22 14:42 19.24762 -99.08212 12322 ft 232 kts 310°
2026-04-22 14:42 19.25721 -99.09542 12053 ft 223 kts 307°
2026-04-22 14:43 19.26624 -99.10838 11833 ft 215 kts 308°
2026-04-22 14:43 19.27507 -99.12092 11597 ft 209 kts 308°
2026-04-22 14:43 19.28369 -99.13303 11341 ft 203 kts 308°
2026-04-22 14:43 19.29212 -99.14476 11124 ft 198 kts 308°
2026-04-22 14:44 19.30041 -99.15627 10892 ft 196 kts 308°
2026-04-22 14:44 19.30861 -99.16764 10678 ft 193 kts 308°
2026-04-22 14:44 19.31678 -99.17894 10443 ft 194 kts 309°
2026-04-22 14:44 19.32665 -99.18855 10222 ft 194 kts 330°
2026-04-22 14:45 19.33931 -99.19329 10031 ft 195 kts 352°
2026-04-22 14:45 19.35285 -99.19292 9781 ft 194 kts 12°
2026-04-22 14:45 19.36527 -99.18765 9563 ft 194 kts 33°
2026-04-22 14:45 19.37456 -99.17743 9368 ft 192 kts 54°
2026-04-22 14:46 19.38204 -99.16600 9103 ft 183 kts 57°
2026-04-22 14:46 19.38846 -99.15485 8908 ft 172 kts 59°
2026-04-22 14:46 19.39457 -99.14391 8649 ft 171 kts 59°
2026-04-22 14:46 19.40056 -99.13312 8427 ft 169 kts 60°
2026-04-22 14:47 19.40626 -99.12243 8228 ft 165 kts 60°
2026-04-22 14:47 19.41217 -99.11204 8006 ft 164 kts 59°
2026-04-22 14:47 19.41806 -99.10161 7786 ft 167 kts 59°
2026-04-22 14:47 19.42406 -99.09101 7540 ft 169 kts 59°
2026-04-22 14:48 19.43013 -99.08021 7314 ft 170 kts 59°
2026-04-22 14:48 19.43566 -99.07042 7301 ft 130 kts 59°
2026-04-22 14:48 19.43914 -99.06423 7302 ft 62 kts 57°
2026-04-22 14:48 19.43983 -99.06206 7302 ft 22 kts 95°
2026-04-22 14:49 19.43968 -99.06104 7302 ft 9 kts 108°
2026-04-22 14:49 19.43915 -99.06085 7302 ft 9 kts 216°
2026-04-22 14:49 19.43892 -99.06118 7302 ft 0 kts 236°